TG6YMD-19 Weather Reports


time (UTC)temp
C
wind
direction
speed
KPH
gust
KPH
rain 1hr
cm
rain 24hr
cm
rain mn
cm
humidity
%
barometer
mb
20260507062717 26 46 3.2 4.8 0.00 0.00 0.00 82 1013.0
20260507061716 23 46 3.2 4.8 0.00 0.00 0.00 79 1013.0
20260507060716 24 46 3.2 4.8 0.00 0.00 0.00 79 1013.0
20260507055715 25 46 3.2 4.8 0.00 0.00 0.00 79 1013.0
20260507054714 25 46 3.2 4.8 0.00 0.00 0.00 79 1013.0
20260507053714 23 46 3.2 4.8 0.00 0.00 0.00 61 1013.0
20260507052713 24 46 4.8 6.4 0.00 0.00 0.00 61 1013.0
20260507051712 25 46 4.8 6.4 0.00 0.00 0.00 61 1013.0
20260507050711 25 46 4.8 6.4 0.00 0.00 0.00 61 1013.0
20260507045711 26 46 4.8 6.4 0.00 0.00 0.00 61 1013.0
20260507044710 26 46 4.8 6.4 0.00 0.00 0.00 61 1013.0
20260507043710 27 46 4.8 6.4 0.00 0.00 0.00 61 1013.0
20260507042709 27 44 4.8 8.0 0.00 0.00 0.00 61 1013.0
20260507041708 24 44 4.8 8.0 0.00 0.00 0.00 40 1013.0
20260507040707 25 44 4.8 8.0 0.00 0.00 0.00 40 1013.0
20260507035707 25 44 4.8 8.0 0.00 0.00 0.00 40 1013.0
20260507034706 26 44 4.8 8.0 0.00 0.00 0.00 40 1013.0
20260507033705 26 44 4.8 8.0 0.00 0.00 0.00 40 1013.0
20260507032705 27 40 4.8 8.0 0.00 0.00 0.00 40 1012.0
20260507031704 27 40 4.8 8.0 0.00 0.00 0.00 40 1012.0
20260507030704 27 40 4.8 8.0 0.00 0.00 0.00 40 1012.0
20260507025703 27 40 4.8 8.0 0.00 0.00 0.00 40 1012.0
20260507024702 28 40 4.8 8.0 0.00 0.00 0.00 40 1012.0
20260507023702 28 40 4.8 8.0 0.00 0.00 0.00 40 1012.0
20260507022701 29 42 6.4 9.7 0.00 0.00 0.00 40 1011.0
20260507021701 30 42 6.4 9.7 0.00 0.00 0.00 40 1011.0
20260507020700 30 42 6.4 9.7 0.00 0.00 0.00 40 1011.0
20260507015700 30 42 6.4 9.7 0.00 0.00 0.00 40 1011.0
20260507014659 30 42 6.4 9.7 0.00 0.00 0.00 40 1011.0
20260507013658 31 42 6.4 9.7 0.00 0.00 0.00 40 1011.0
20260507012658 31 49 6.4 11.3 0.00 0.00 0.00 40 1010.0
20260507011657 32 49 6.4 11.3 0.03 0.00 0.00 40 1010.0
20260507010657 32 49 6.4 11.3 0.00 0.00 0.00 40 1010.0
20260507005656 33 70 14.5 0.0 0.00 0.00 0.00 40 1010.0
20260507004656 33 70 14.5 0.0 0.00 0.00 0.00 40 1010.0
20260507003655 33 70 14.5 0.0 0.00 0.00 0.00 40 1010.0
20260507002654 33 70 14.5 0.0 0.00 0.00 0.00 40 1008.0
20260507001654 33 70 14.5 0.0 0.00 0.00 0.00 40 1008.0
20260507000653 33 70 14.5 0.0 0.00 0.00 0.00 40 1008.0
20260506235653 35 70 17.7 0.0 0.00 0.00 0.00 36 1008.0
20260506234652 35 70 17.7 0.0 0.00 0.00 0.00 36 1008.0
20260506233651 35 70 17.7 0.0 0.00 0.00 0.00 36 1008.0
20260506232651 35 70 17.7 0.0 0.00 0.00 0.00 36 1007.0
20260506231650 35 70 17.7 0.0 0.00 0.00 0.00 36 1007.0
20260506230649 37 41 11.3 12.9 0.00 0.00 0.00 30 1007.0
20260506225649 37 60 20.9 0.0 0.00 0.00 0.00 30 1007.0
20260506224648 37 60 20.9 0.0 0.00 0.00 0.00 30 1007.0
20260506223648 37 60 20.9 0.0 0.00 0.00 0.00 30 1007.0
20260506222647 37 60 20.9 0.0 0.00 0.00 0.00 30 1006.0
20260506221646 37 60 20.9 0.0 0.00 0.00 0.00 30 1006.0
20260506220646 37 60 20.9 0.0 0.00 0.00 0.00 30 1006.0
20260506215645 39 60 17.7 0.0 0.00 0.00 0.00 25 1006.0
20260506214645 39 60 17.7 0.0 0.00 0.00 0.00 25 1006.0
20260506213644 39 60 17.7 0.0 0.00 0.00 0.00 25 1006.0
20260506212643 39 60 17.7 0.0 0.00 0.00 0.00 25 1006.0
20260506211643 39 60 17.7 0.0 0.00 0.00 0.00 25 1006.0
20260506210031 39 50 6.4 0.0 0.00 0.00 0.00 25 1006.0
20260506205031 39 50 6.4 0.0 0.00 0.00 0.00 25 1006.0
20260506204030 39 50 6.4 0.0 0.00 0.00 0.00 25 1006.0
20260506203029 39 50 6.4 0.0 0.00 0.00 0.00 25 1006.0
20260506202020 37 11 6.4 11.3 0.00 0.00 0.00 27 1007.0
20260506201019 37 11 6.4 11.3 0.00 0.00 0.00 27 1007.0
20260506200018 38 30 6.4 0.0 0.00 0.00 0.00 27 1007.0
20260506195018 38 30 6.4 0.0 0.00 0.00 0.00 27 1007.0
20260506194017 38 30 6.4 0.0 0.00 0.00 0.00 27 1007.0
20260506193017 38 30 6.4 0.0 0.00 0.00 0.00 27 1007.0
20260506192016 38 30 6.4 0.0 0.00 0.00 0.00 27 1009.0
20260506191016 36 50 6.4 0.0 0.00 0.00 0.00 34 1009.0
20260506190015 36 50 6.4 0.0 0.00 0.00 0.00 34 1009.0
20260506185015 36 50 6.4 0.0 0.00 0.00 0.00 34 1009.0
20260506184014 36 50 6.4 0.0 0.00 0.00 0.00 34 1009.0
20260506183014 36 50 6.4 0.0 0.00 0.00 0.00 34 1009.0
20260506182013 36 50 6.4 0.0 0.00 0.00 0.00 34 1010.0
20260506181012 36 50 6.4 0.0 0.00 0.00 0.00 34 1010.0
20260506180011 34 20 6.4 0.0 0.00 0.00 0.00 43 1010.0
20260506175010 34 20 6.4 0.0 0.00 0.00 0.00 43 1010.0
20260506172923 34 20 6.4 0.0 0.00 0.00 0.00 43 1012.0
20260506171922 34 20 6.4 0.0 0.00 0.00 0.00 43 1012.0
20260506170921 35 95 1.6 3.2 0.00 0.00 0.00 47 1012.0
20260506165921 32 0 0.0 0.0 0.00 0.00 0.00 49 1012.0
20260506164920 32 0 0.0 0.0 0.00 0.00 0.00 49 1012.0
20260506163920 32 0 0.0 0.0 0.00 0.00 0.00 49 1013.0
20260506162919 32 0 0.0 0.0 0.00 0.00 0.00 49 1013.0
20260506161934 32 0 0.0 0.0 0.00 0.00 0.00 49 1013.0
20260506160934 30 0 0.0 0.0 0.00 0.00 0.00 55 1013.0
20260506155933 30 0 0.0 0.0 0.00 0.00 0.00 55 1013.0
20260506154932 30 0 0.0 0.0 0.00 0.00 0.00 55 1013.0
20260506153932 30 0 0.0 0.0 0.00 0.00 0.00 55 1013.0
20260506152931 30 0 0.0 0.0 0.00 0.00 0.00 55 1014.0
20260506151930 30 0 0.0 0.0 0.00 0.00 0.00 55 1014.0
20260506150930 28 0 0.0 0.0 0.00 0.00 0.00 74 1014.0
20260506145929 28 0 0.0 0.0 0.00 0.00 0.00 74 1014.0
20260506144929 28 0 0.0 0.0 0.00 0.00 0.00 74 1014.0
20260506143928 28 0 0.0 0.0 0.00 0.00 0.00 74 1014.0
20260506142928 28 0 0.0 0.0 0.00 0.00 0.00 74 1014.0
20260506141927 28 0 0.0 0.0 0.00 0.00 0.00 74 1014.0
20260506140927 26 0 0.0 0.0 0.00 0.00 0.00 78 1014.0
20260506135925 26 0 0.0 0.0 0.00 0.00 0.00 78 1014.0
20260506134924 26 0 0.0 0.0 0.00 0.00 0.00 78 1014.0
20260506133924 26 0 0.0 0.0 0.00 0.00 0.00 78 1014.0
20260506132923 26 0 0.0 0.0 0.00 0.00 0.00 78 1014.0
20260506131922 26 0 0.0 0.0 0.00 0.00 0.00 78 1014.0
20260506130921 26 0 0.0 0.0 0.00 0.00 0.00 78 1014.0
20260506125921 24 0 0.0 0.0 0.00 0.00 0.00 88 1014.0
20260506124920 24 0 0.0 0.0 0.00 0.00 0.00 88 1014.0
20260506123919 24 0 0.0 0.0 0.00 0.00 0.00 88 1014.0
20260506122919 24 0 0.0 0.0 0.00 0.00 0.00 88 1013.0
20260506121918 24 0 0.0 0.0 0.00 0.00 0.00 88 1013.0
20260506120918 24 0 0.0 0.0 0.00 0.00 0.00 88 1013.0
20260506115917 25 165 0.0 1.6 0.00 0.00 0.00 89 1013.0
20260506114916 21 165 0.0 1.6 0.00 0.00 0.00 89 1013.0
20260506113916 21 165 0.0 1.6 0.00 0.00 0.00 89 1013.0
20260506112915 21 84 1.6 1.6 0.00 0.00 0.00 89 1013.0
20260506111915 22 84 1.6 1.6 0.00 0.00 0.00 89 1013.0
20260506110914 22 84 1.6 1.6 0.00 0.00 0.00 89 1013.0
20260506105913 23 84 1.6 1.6 0.00 0.00 0.00 89 1013.0
20260506104913 23 84 1.6 1.6 0.00 0.00 0.00 89 1013.0
20260506103912 24 84 1.6 1.6 0.00 0.00 0.00 89 1013.0
20260506102912 21 52 1.6 1.6 0.00 0.00 0.00 88 1013.0
20260506101911 22 52 1.6 1.6 0.00 0.00 0.00 88 1013.0
20260506100910 22 52 1.6 1.6 0.00 0.00 0.00 88 1013.0
20260506095910 23 52 1.6 1.6 0.00 0.00 0.00 88 1013.0
20260506094909 23 52 1.6 1.6 0.00 0.00 0.00 88 1013.0
20260506093909 21 52 1.6 1.6 0.00 0.00 0.00 86 1013.0
20260506092908 22 63 3.2 3.2 0.00 0.00 0.00 86 1013.0
20260506091907 22 63 3.2 3.2 0.00 0.00 0.00 86 1013.0
20260506090907 23 63 3.2 3.2 0.00 0.00 0.00 86 1013.0
20260506085906 23 63 3.2 3.2 0.00 0.00 0.00 86 1013.0
20260506084906 24 63 3.2 3.2 0.00 0.00 0.00 86 1013.0
20260506083905 25 63 3.2 3.2 0.00 0.00 0.00 86 1013.0
20260506082904 25 49 3.2 4.8 0.00 0.00 0.00 86 1013.0
20260506081904 22 49 3.2 4.8 0.00 0.00 0.00 84 1013.0
20260506080903 22 49 3.2 4.8 0.00 0.00 0.00 84 1013.0
20260506072844 25 38 4.8 6.4 0.00 0.00 0.00 84 1013.0
20260506071843 25 38 4.8 6.4 0.00 0.00 0.00 84 1013.0
20260506070843 22 38 4.8 6.4 0.00 0.00 0.00 83 1013.0